Date String (YYYY-MM-DD hh:mm:ss) UTC,Instrument flags,Ambient pressure (hPa),Sample flow (lpm),Bypass flow (lpm),Sample temperature (°C),Ambient temperature (°C),ASC tube jacket temperature (°C),LED temperature (°C),Box temperature (°C),Sample RH (%),Span deviation,Mass concentration (μg/m³),Mass concentration (μg/m³),Mass concentration (μg/m³)
DateTimeUTC,F1_M11,P_M11,Q1_M11,Q2_M11,T1_M11,T2_M11,T3_M11,T4_M11,T5_M11,U1_M11,ZSPAN_M11,X0_M11,X2_M11,X1_M11
2022-06-17 07:00:00,,0830.1,5.00,0.00,29.7,27.0,00.0,38.5,31.1,31.9,0000.0,0019.25,0007.25,0004.31
2022-06-17 07:01:00,,0830.1,5.00,0.00,29.6,27.2,00.0,38.5,31.1,31.8,0000.0,0018.86,0007.14,0004.26
2022-06-17 07:02:00,,0830.1,5.01,0.00,29.6,27.4,00.0,38.5,31.2,31.8,0000.0,0017.89,0007.00,0004.22
2022-06-17 07:03:00,,0830.1,5.00,0.00,29.6,27.6,00.0,38.4,31.2,31.6,0000.0,0017.86,0006.99,0004.20
2022-06-17 07:04:00,,0830.1,5.01,0.00,29.6,27.7,00.0,38.4,31.3,31.4,0000.0,0017.30,0006.94,0004.16
2022-06-17 07:05:00,,0830.2,5.01,0.00,29.6,27.9,00.0,38.4,31.3,31.2,0000.0,0017.18,0006.75,0004.12
2022-06-17 07:06:00,,0830.1,5.00,0.00,29.6,28.0,00.0,38.4,31.3,31.1,0000.0,0016.69,0006.55,0004.07
2022-06-17 07:07:00,,0830.1,4.99,0.00,29.6,28.2,00.0,38.4,31.4,31.0,0000.0,0016.81,0006.43,0004.03
2022-06-17 07:08:00,,0830.2,5.00,0.00,29.6,28.3,00.0,38.4,31.4,30.9,0000.0,0016.44,0006.33,0003.99
2022-06-17 07:09:00,,0830.1,4.99,0.00,29.7,28.4,00.0,38.4,31.5,30.7,0000.0,0016.19,0006.28,0003.96
2022-06-17 07:10:00,,0830.1,5.01,0.00,29.7,28.5,00.0,38.4,31.5,30.6,0000.0,0015.95,0006.23,0003.95
2022-06-17 07:11:00,,0830.1,4.99,0.00,29.7,28.5,00.0,38.5,31.5,30.5,0000.0,0015.15,0006.27,0003.95
2022-06-17 07:12:00,,0830.1,5.00,0.00,29.7,28.6,00.0,38.5,31.6,30.3,0000.0,0015.96,0006.30,0003.96
2022-06-17 07:13:00,,0830.1,5.02,0.00,29.8,28.7,00.0,38.5,31.6,30.2,0000.0,0016.53,0006.29,0003.95
2022-06-17 07:14:00,,0830.1,4.99,0.00,29.8,28.4,00.0,38.5,31.6,30.2,0000.0,0017.70,0006.25,0003.94
2022-06-17 07:15:00,,0830.1,5.00,0.00,29.7,27.7,00.0,38.4,31.4,30.3,0000.0,0017.91,0006.20,0003.93
2022-06-17 07:16:00,,0830.1,5.01,0.00,29.7,27.4,00.0,38.4,31.3,30.4,0000.0,0016.95,0006.20,0003.92
2022-06-17 07:17:00,,0830.1,4.99,0.00,29.6,27.3,00.0,38.4,31.2,30.6,0000.0,0017.08,0006.24,0003.92
2022-06-17 07:18:00,,0830.0,4.99,0.00,29.6,27.4,00.0,38.4,31.2,30.8,0000.0,0016.79,0006.26,0003.93
2022-06-17 07:19:00,,0830.0,5.00,0.00,29.5,27.5,00.0,38.4,31.2,30.9,0000.0,0016.49,0006.28,0003.94
2022-06-17 07:20:00,,0830.0,5.00,0.00,29.5,27.7,00.0,38.3,31.3,31.0,0000.0,0016.71,0006.22,0003.94
2022-06-17 07:21:00,,0830.0,5.01,0.00,29.5,27.8,00.0,38.3,31.3,31.1,0000.0,0017.33,0006.27,0003.97
2022-06-17 07:22:00,,0830.1,5.00,0.00,29.5,28.0,00.0,38.3,31.3,31.2,0000.0,0017.49,0006.27,0003.97
2022-06-17 07:23:00,,0830.0,4.99,0.00,29.5,28.1,00.0,38.4,31.4,31.2,0000.0,0016.86,0006.29,0003.97
2022-06-17 07:24:00,,0830.1,5.00,0.00,29.6,28.2,00.0,38.4,31.4,31.4,0000.0,0016.32,0006.29,0003.98
2022-06-17 07:25:00,,0830.1,5.01,0.00,29.6,28.3,00.0,38.4,31.4,31.6,0000.0,0015.19,0006.29,0003.98
2022-06-17 07:26:00,,0830.1,4.99,0.00,29.6,28.4,00.0,38.4,31.5,31.6,0000.0,0014.46,0006.25,0003.99
2022-06-17 07:27:00,,0830.0,4.99,0.00,29.6,28.5,00.0,38.4,31.5,31.5,0000.0,0014.80,0006.36,0004.01
2022-06-17 07:28:00,,0830.0,5.00,0.00,29.6,28.6,00.0,38.4,31.5,31.5,0000.0,0014.90,0006.42,0004.03
2022-06-17 07:29:00,,0829.9,5.00,0.00,29.7,28.6,00.0,38.4,31.6,31.5,0000.0,0014.82,0006.46,0004.03
2022-06-17 07:30:00,,0829.9,5.01,0.00,29.7,28.4,00.0,38.4,31.5,31.5,0000.0,0014.72,0006.46,0004.05
2022-06-17 07:31:00,,0829.9,5.00,0.00,29.6,27.7,00.0,38.3,31.4,31.6,0000.0,0014.68,0006.55,0004.06
2022-06-17 07:32:00,,0829.9,5.00,0.00,29.6,27.4,00.0,38.3,31.3,31.9,0000.0,0014.26,0006.51,0004.05
2022-06-17 07:33:00,,0829.8,5.00,0.00,29.5,27.3,00.0,38.3,31.2,32.2,0000.0,0014.91,0006.56,0004.07
2022-06-17 07:34:00,,0829.9,5.01,0.00,29.5,27.4,00.0,38.3,31.2,32.2,0000.0,0015.21,0006.57,0004.09
2022-06-17 07:35:00,,0829.9,5.00,0.00,29.4,27.5,00.0,38.3,31.2,32.2,0000.0,0015.56,0006.58,0004.09
2022-06-17 07:36:00,,0829.9,5.00,0.00,29.4,27.7,00.0,38.3,31.2,32.2,0000.0,0015.60,0006.61,0004.10
2022-06-17 07:37:00,,0829.9,5.01,0.00,29.4,27.8,00.0,38.3,31.3,32.2,0000.0,0015.82,0006.66,0004.10
2022-06-17 07:38:00,,0829.9,5.00,0.00,29.4,28.0,00.0,38.3,31.3,32.2,0000.0,0015.78,0006.61,0004.10
2022-06-17 07:39:00,,0829.9,5.01,0.00,29.5,28.1,00.0,38.3,31.3,32.1,0000.0,0015.94,0006.55,0004.10
2022-06-17 07:40:00,,0829.8,5.00,0.00,29.5,28.2,00.0,38.3,31.4,32.1,0000.0,0015.99,0006.57,0004.09
2022-06-17 07:41:00,,0829.9,5.00,0.00,29.5,28.3,00.0,38.3,31.4,32.2,0000.0,0015.91,0006.53,0004.08
2022-06-17 07:42:00,,0829.8,5.00,0.00,29.5,28.4,00.0,38.3,31.4,32.2,0000.0,0015.84,0006.48,0004.07
2022-06-17 07:43:00,,0829.9,4.99,0.00,29.5,28.5,00.0,38.3,31.5,32.2,0000.0,0015.55,0006.44,0004.06
2022-06-17 07:44:00,,0830.0,5.01,0.00,29.6,28.5,00.0,38.3,31.5,32.2,0000.0,0014.88,0006.40,0004.05
2022-06-17 07:45:00,,0830.1,5.01,0.00,29.6,28.6,00.0,38.4,31.5,32.3,0000.0,0014.65,0006.43,0004.05
2022-06-17 07:46:00,,0829.9,5.00,0.00,29.6,28.6,00.0,38.4,31.6,32.5,0000.8,0015.86,0006.49,0004.06
2022-06-17 07:47:00,,0829.9,5.00,0.00,29.6,28.1,00.0,38.3,31.4,32.9,0002.6,0016.73,0006.52,0004.08
2022-06-17 07:48:00,,0829.8,5.00,0.00,29.6,27.4,00.0,38.3,31.3,33.0,0001.2,0016.67,0006.55,0004.12
2022-06-17 07:49:00,,0829.9,4.99,0.00,29.5,27.3,00.0,38.3,31.2,33.2,0000.3,0016.73,0006.62,0004.15
2022-06-17 07:50:00,,0829.9,5.01,0.00,29.4,27.3,00.0,38.3,31.2,33.3,0000.0,0016.94,0006.69,0004.16
2022-06-17 07:51:00,,0829.9,5.01,0.00,29.4,27.4,00.0,38.2,31.2,33.5,0000.0,0017.02,0006.69,0004.19
2022-06-17 07:52:00,,0829.9,5.00,0.00,29.4,27.6,00.0,38.2,31.2,33.6,0000.0,0017.31,0006.81,0004.22
2022-06-17 07:53:00,,0829.9,5.00,0.00,29.4,27.7,00.0,38.2,31.2,33.6,0000.0,0017.31,0006.82,0004.24
2022-06-17 07:54:00,,0830.0,5.02,0.00,29.4,27.9,00.0,38.2,31.3,33.6,-000.0,0017.62,0006.87,0004.27
2022-06-17 07:55:00,,0830.1,5.00,0.00,29.4,28.0,00.0,38.2,31.3,33.7,-000.2,0018.27,0006.90,0004.30
2022-06-17 07:56:00,,0830.2,4.99,0.00,29.4,28.1,00.0,38.3,31.3,33.7,-000.0,0018.32,0006.92,0004.32
2022-06-17 07:57:00,,0829.9,5.00,0.00,29.4,28.2,00.0,38.3,31.4,33.8,0000.0,0017.56,0006.93,0004.34
2022-06-17 07:58:00,,0829.9,5.01,0.00,29.5,28.4,00.0,38.3,31.4,33.7,0000.0,0016.41,0006.91,0004.36
2022-06-17 07:59:00,,0829.8,5.00,0.00,29.5,28.4,00.0,38.3,31.4,33.7,0000.0,0016.60,0006.98,0004.37
